Simultaneous Nadir Overpasses (SNOs) Predictions

Prediction of SNOs between AQUA and NPP Satellite Orbit:

Table of predicted SNOs for the next 14.0 days since TLE Epoch: 6/25/2016
Index Date (AQUA) Time (AQUA) Lat,Lon (AQUA) SZA (AQUA ) Date (NPP) Time (NPP) Lat,Lon (NPP) SZA (NPP ) Distance(km) Time Diff (sec)
1 06/25/2016 06:21:35 -75.83, 143.03 105.30 06/25/2016 06:22:36 -75.82, 142.99 105.34 1.14 61
2 06/27/2016 20:59:51 -73.69, -81.77 102.75 06/27/2016 20:58:45 -73.70, -81.76 102.70 0.33 66
3 06/27/2016 21:48:50 75.05, 89.12 75.73 06/27/2016 21:49:01 75.05, 89.07 75.73 1.48 11
4 06/30/2016 13:16:05 -74.35, 35.60 103.31 06/30/2016 13:15:26 -74.35, 35.63 103.28 0.99 39
5 06/30/2016 14:05:06 75.59,-153.53 75.29 06/30/2016 14:05:44 75.58,-153.54 75.26 0.31 38
6 07/03/2016
